period_start,C,m1,H,J0,J1,J2,J3,J4,J5,JA,JB,JC,JD,JJ,JK,JN,#
2015-01-13 00:03:54,0.32,4.03,0.00,23.65,27.89,30.60,4.88,27.20,1029.60,2026.05,2083.90,2337.85,2533.70,350.60,351.91,16.46,0000 0000 0000 0000 000000
2015-01-13 00:08:56,0.30,4.04,0.00,23.66,27.90,30.60,4.88,27.18,1029.41,2026.04,2081.78,2336.17,2531.92,349.82,351.00,16.49,0000 0000 0000 0000 000000
2015-01-13 00:13:57,0.32,4.05,0.00,23.63,27.90,30.55,4.76,27.04,1029.37,2026.05,2079.68,2334.44,2530.06,350.19,351.62,16.52,0000 0000 0000 0000 000000
2015-01-13 00:18:58,0.32,4.06,0.00,23.61,27.90,30.55,4.88,27.13,1029.34,2026.03,2077.52,2332.69,2528.18,349.93,351.22,16.55,0000 0000 0000 0000 000000
2015-01-13 00:24:00,0.31,4.07,0.00,23.66,27.90,30.54,4.87,27.28,1029.33,2026.02,2075.44,2330.98,2526.22,349.83,351.12,16.58,0000 0000 0000 0000 000000
2015-01-13 00:29:01,0.31,4.07,0.00,23.63,27.90,30.53,4.83,27.08,1029.34,2026.03,2073.36,2329.30,2524.36,350.14,351.27,16.61,0000 0000 0000 0000 000000
2015-01-13 00:34:02,0.33,4.08,0.00,23.62,27.90,30.51,4.88,27.15,1029.32,2026.02,2071.24,2327.59,2522.54,350.39,351.62,16.64,0000 0000 0000 0000 000000
2015-01-13 00:39:04,0.34,4.09,0.00,23.58,27.90,30.53,4.74,27.04,1029.32,2026.00,2068.88,2325.79,2520.75,350.25,351.59,16.66,0000 0000 0000 0000 000000
2015-01-13 00:44:05,0.29,4.11,0.00,23.59,27.90,30.54,4.86,27.13,1029.33,2026.00,2066.84,2324.10,2518.89,349.97,351.28,16.69,0000 0000 0000 0000 000000
2015-01-13 00:49:06,0.32,4.11,0.00,23.59,27.90,30.56,4.85,27.05,1029.41,2026.01,2064.87,2322.49,2517.03,349.98,351.25,16.72,0000 0000 0000 0000 000000
2015-01-13 00:54:07,0.33,4.12,0.00,23.61,27.90,30.57,4.80,27.15,1029.47,2026.00,2062.71,2320.73,2515.19,349.82,351.11,16.75,0000 0000 0000 0000 000000
2015-01-13 00:59:09,0.30,4.13,0.00,23.62,27.90,30.59,4.78,27.08,1029.66,2026.00,2060.61,2319.04,2513.42,350.09,351.50,16.78,0000 0000 0000 0000 000000
2015-01-13 01:04:10,0.32,4.14,0.00,23.61,27.91,30.58,4.89,27.07,1029.77,2026.00,2058.45,2317.36,2511.68,350.54,351.75,16.81,0000 0000 0000 0000 000000
2015-01-13 01:09:12,0.31,4.15,0.00,23.60,27.92,30.58,4.84,27.23,1029.75,2026.00,2056.44,2315.72,2509.90,350.14,351.51,16.84,0000 0000 0000 0000 000000
2015-01-13 01:14:13,0.30,4.16,0.00,23.62,27.92,30.60,4.89,27.14,1029.79,2026.00,2054.41,2314.10,2508.17,349.50,350.94,16.87,0000 0000 0000 0000 000000
2015-01-13 01:19:15,0.30,4.17,0.00,23.58,27.92,30.62,4.87,27.20,1029.80,2026.00,2052.39,2312.49,2506.41,350.20,351.65,16.90,0000 0000 0000 0000 000000
2015-01-13 01:24:16,0.30,4.18,0.00,23.57,27.92,30.61,4.91,27.34,1029.80,2026.00,2050.52,2310.90,2504.71,350.08,351.40,16.93,0000 0000 0000 0000 000000
2015-01-13 01:29:18,0.29,4.19,0.00,23.61,27.92,30.56,4.87,27.15,1029.80,2026.00,2048.60,2309.40,2502.99,349.83,351.42,16.96,0000 0000 0000 0000 000000
2015-01-13 01:34:19,0.29,4.20,0.00,23.58,27.92,30.55,4.85,27.22,1029.75,2026.00,2046.79,2307.76,2501.33,349.94,351.46,16.99,0000 0000 0000 0000 000000
2015-01-13 01:39:20,0.30,4.20,0.00,23.60,27.92,30.60,4.82,27.04,1029.78,2026.00,2044.88,2306.20,2499.60,350.04,351.41,17.02,0000 0000 0000 0000 000000
2015-01-13 01:44:22,0.28,4.21,0.00,23.58,27.92,30.58,4.87,27.25,1029.80,2026.00,2043.16,2304.69,2497.89,350.23,351.25,17.05,0000 0000 0000 0000 000000
2015-01-13 01:49:23,0.26,4.22,0.00,23.59,27.92,30.60,4.77,27.18,1029.80,2026.00,2041.22,2303.17,2496.28,350.21,351.63,17.08,0000 0000 0000 0000 000000
2015-01-13 01:54:24,0.28,4.23,0.00,23.58,27.92,30.59,4.87,27.26,1029.80,2025.99,2039.43,2301.70,2494.72,350.20,351.72,17.10,0000 0000 0000 0000 000000
2015-01-13 01:59:26,0.27,4.24,0.00,23.57,27.94,30.58,4.85,27.23,1029.80,2025.99,2037.62,2300.23,2493.10,349.77,351.34,17.13,0000 0000 0000 0000 000000
2015-01-13 02:04:27,0.30,4.25,0.00,23.56,27.94,30.62,4.86,27.07,1029.80,2025.99,2035.77,2298.73,2491.54,350.16,351.66,17.16,0000 0000 0000 0000 000000
2015-01-13 02:09:28,0.27,4.26,0.00,23.55,27.95,30.59,4.79,27.18,1029.80,2025.98,2033.91,2297.25,2489.88,349.62,351.23,17.19,0000 0000 0000 0000 000000
2015-01-13 02:14:30,0.28,4.26,0.00,23.56,27.95,30.57,4.76,27.14,1029.80,2025.98,2032.08,2295.75,2488.30,349.67,351.16,17.22,0000 0000 0000 0000 000000
2015-01-13 02:19:31,0.28,4.27,0.00,23.54,27.95,30.59,4.85,27.14,1029.80,2025.98,2030.38,2294.30,2486.61,350.11,351.48,17.25,0000 0000 0000 0000 000000
2015-01-13 02:24:33,0.30,4.28,0.00,23.54,27.95,30.58,4.72,27.14,1029.80,2025.97,2028.45,2292.72,2484.96,350.04,351.59,17.28,0000 0000 0000 0000 000000
2015-01-13 02:29:34,0.29,4.29,0.00,23.53,27.95,30.60,4.78,27.07,1029.80,2025.97,2026.51,2291.20,2483.36,349.79,351.47,17.31,0000 0000 0000 0000 000000
2015-01-13 02:34:35,0.30,4.30,0.00,23.54,27.95,30.61,4.88,27.13,1029.80,2025.93,2024.64,2289.62,2481.61,350.46,352.00,17.34,0000 0000 0000 0000 000000
2015-01-13 02:39:36,0.27,4.31,0.00,23.50,27.95,30.61,4.85,27.18,1029.80,2025.79,2022.54,2288.02,2479.96,350.23,351.90,17.37,0000 0000 0000 0000 000000
2015-01-13 02:44:38,0.31,4.32,0.00,23.49,27.95,30.65,4.83,27.23,1029.81,2025.87,2020.62,2286.44,2478.30,349.53,350.81,17.40,0000 0000 0000 0000 000000
2015-01-13 02:49:38,0.31,4.32,0.00,23.51,27.95,30.63,4.84,27.03,1029.80,2025.93,2018.87,2284.89,2476.63,349.60,351.10,17.43,0000 0000 0000 0000 000000
2015-01-13 02:54:39,0.29,4.33,0.00,23.52,27.95,30.65,4.91,27.08,1029.80,2025.92,2017.10,2283.42,2474.82,350.55,352.13,17.46,0000 0000 0000 0000 000000
2015-01-13 02:59:41,0.28,4.34,0.00,23.51,27.95,30.65,4.79,27.17,1029.80,2025.72,2014.97,2281.71,2473.04,349.42,351.12,17.49,0000 0000 0000 0000 000000
2015-01-13 03:04:42,0.30,4.35,0.00,23.50,27.95,30.64,4.82,27.07,1029.80,2025.62,2012.74,2280.08,2471.45,349.69,351.49,17.51,0000 0000 0000 0000 000000
2015-01-13 03:09:43,0.38,4.36,0.00,23.49,27.95,30.64,4.84,27.23,1029.80,2025.81,2010.72,2278.50,2469.75,350.10,351.81,17.54,0000 0000 0000 0000 000000
2015-01-13 03:14:45,0.30,4.37,0.00,23.48,27.96,30.66,4.77,27.07,1029.82,2025.75,2008.69,2276.84,2468.00,349.48,351.32,17.57,0000 0000 0000 0000 000000
2015-01-13 03:19:46,0.27,4.38,0.00,23.47,27.97,30.66,4.85,27.09,1029.82,2025.62,2006.69,2275.20,2466.24,349.95,351.39,17.60,0000 0000 0000 0000 000000
2015-01-13 03:24:48,0.35,4.39,0.00,23.46,27.97,30.68,4.85,27.02,1029.87,2025.65,2004.51,2273.49,2464.48,350.32,351.95,17.63,0000 0000 0000 0000 000000
2015-01-13 03:29:49,0.31,4.40,0.00,23.49,27.97,30.70,4.88,26.98,1029.85,2025.62,2002.50,2271.84,2462.65,349.82,351.44,17.66,0000 0000 0000 0000 000000
2015-01-13 03:34:50,0.32,4.41,0.00,23.48,27.97,30.72,4.85,26.98,1029.85,2025.67,2000.59,2270.18,2460.90,350.04,351.81,17.69,0000 0000 0000 0000 000000
2015-01-13 03:39:51,0.28,4.42,0.00,23.46,27.97,30.75,4.92,27.11,1029.90,2025.44,1998.49,2268.51,2459.04,350.06,351.69,17.72,0000 0000 0000 0000 000000
2015-01-13 03:44:53,0.36,4.43,0.00,23.46,27.97,30.79,4.80,27.02,1030.10,2025.64,1996.55,2266.92,2457.37,349.65,351.54,17.75,0000 0000 0000 0000 000000
2015-01-13 03:49:54,0.35,4.44,0.00,23.46,27.97,30.76,4.85,27.02,1029.96,2025.83,1994.60,2265.38,2455.68,349.60,351.23,17.78,0000 0000 0000 0000 000000
2015-01-13 03:54:55,0.28,4.45,0.00,23.47,27.99,30.71,4.88,27.13,1029.90,2025.65,1992.59,2263.70,2453.84,350.27,351.80,17.81,0000 0000 0000 0000 000000
2015-01-13 03:59:56,0.31,4.45,0.00,23.47,28.00,30.72,4.82,27.09,1029.96,2025.58,1990.55,2262.00,2452.09,350.17,351.80,17.84,0000 0000 0000 0000 000000
2015-01-13 04:04:58,0.31,4.46,0.00,23.46,28.00,30.75,4.87,27.07,1029.84,2025.48,1988.53,2260.39,2450.27,350.08,351.80,17.87,0000 0000 0000 0000 000000
2015-01-13 04:09:59,0.37,4.47,0.00,23.44,28.00,30.76,4.81,27.13,1029.85,2025.66,1986.46,2258.72,2448.53,349.92,351.62,17.90,0000 0000 0000 0000 000000
2015-01-13 04:15:00,0.23,4.48,0.00,23.43,28.00,30.80,4.81,27.10,1029.89,2025.34,1984.39,2257.07,2446.75,349.76,351.38,17.92,0000 0000 0000 0000 000000
2015-01-13 04:20:01,0.33,4.49,0.00,23.41,28.00,30.83,4.78,27.01,1030.11,2025.35,1982.49,2255.45,2444.98,348.95,350.69,17.95,0000 0000 0000 0000 000000
2015-01-13 04:25:02,0.31,4.50,0.00,23.38,28.00,30.82,4.81,27.01,1030.21,2025.27,1980.53,2253.74,2443.13,349.67,351.52,17.98,0000 0000 0000 0000 000000
2015-01-13 04:30:04,0.32,4.51,0.00,23.37,28.01,30.82,4.87,27.11,1030.26,2025.22,1978.50,2252.13,2441.42,350.36,352.28,18.01,0000 0000 0000 0000 000000
2015-01-13 04:35:05,0.28,4.52,0.00,23.40,28.02,30.83,4.88,27.06,1030.29,2025.18,1976.74,2250.55,2439.57,350.06,351.85,18.04,0000 0000 0000 0000 000000
2015-01-13 04:40:07,0.35,4.53,0.00,23.42,28.02,30.80,4.86,27.27,1030.29,2025.06,1974.62,2248.79,2437.72,350.05,351.84,18.07,0000 0000 0000 0000 000000
2015-01-13 04:45:08,0.30,4.54,0.00,23.43,28.02,30.79,4.83,26.97,1030.29,2025.05,1972.53,2247.20,2435.97,349.80,351.65,18.10,0000 0000 0000 0000 000000
2015-01-13 04:50:09,0.33,4.55,0.00,23.40,28.02,30.80,4.89,27.10,1030.29,2025.06,1970.55,2245.55,2434.25,350.44,352.39,18.13,0000 0000 0000 0000 000000
2015-01-13 04:55:10,0.32,4.56,0.00,23.35,28.02,30.85,4.86,27.02,1030.29,2025.04,1968.63,2243.91,2432.52,350.27,352.30,18.16,0000 0000 0000 0000 000000
2015-01-13 05:00:12,0.31,4.57,0.00,23.37,28.02,30.88,4.84,26.95,1030.29,2025.02,1966.74,2242.36,2430.82,350.05,351.74,18.19,0000 0000 0000 0000 000000
2015-01-13 05:05:13,0.32,4.58,0.00,23.36,28.02,30.88,4.86,27.03,1030.30,2025.02,1964.76,2240.72,2429.11,349.90,351.73,18.22,0000 0000 0000 0000 000000
2015-01-13 05:10:14,0.29,4.59,0.00,23.34,28.02,30.90,4.81,26.96,1030.31,2025.02,1962.84,2239.33,2427.40,349.60,351.57,18.25,0000 0000 0000 0000 000000
2015-01-13 05:15:16,0.32,4.59,0.00,23.31,28.02,30.90,4.88,27.13,1030.30,2025.01,1960.93,2237.78,2425.65,349.86,351.80,18.28,0000 0000 0000 0000 000000
2015-01-13 05:20:17,0.31,4.60,0.00,23.30,28.02,31.00,4.86,27.06,1030.30,2025.01,1958.95,2236.24,2424.02,350.23,352.10,18.31,0000 0000 0000 0000 000000
2015-01-13 05:25:18,0.34,4.61,0.00,23.28,28.02,31.02,4.88,27.19,1030.30,2025.03,1956.81,2234.62,2422.40,350.66,352.58,18.33,0000 0000 0000 0000 000000
2015-01-13 05:30:19,0.33,4.62,0.00,23.29,28.02,30.99,4.85,27.13,1030.30,2025.01,1954.82,2232.93,2420.62,349.76,351.64,18.36,0000 0000 0000 0000 000000
2015-01-13 05:35:21,0.31,4.63,0.00,23.28,28.02,31.00,4.81,27.12,1030.31,2025.01,1952.89,2231.43,2418.88,349.50,351.41,18.39,0000 0000 0000 0000 000000
2015-01-13 05:40:22,0.35,4.64,0.00,23.26,28.02,30.99,4.84,27.28,1030.34,2025.02,1950.79,2229.73,2417.18,349.93,352.03,18.42,0000 0000 0000 0000 000000
2015-01-13 05:45:23,0.31,4.65,0.00,23.27,28.02,31.01,4.85,27.23,1030.34,2025.01,1948.79,2228.17,2415.54,350.23,352.30,18.45,0000 0000 0000 0000 000000
2015-01-13 05:50:25,0.35,4.66,0.00,23.26,28.02,31.04,4.86,27.13,1030.33,2025.03,1946.84,2226.59,2413.80,350.35,352.29,18.48,0000 0000 0000 0000 000000
2015-01-13 05:55:26,0.34,4.67,0.00,23.25,28.02,31.05,4.85,27.12,1030.51,2025.03,1944.92,2224.91,2412.02,349.69,352.00,18.51,0000 0000 0000 0000 000000
2015-01-13 06:00:27,0.30,4.68,0.00,23.25,28.02,31.05,4.90,27.10,1030.74,2025.02,1942.99,2223.37,2410.27,350.39,352.54,18.54,0000 0000 0000 0000 000000
2015-01-13 06:05:29,0.35,4.69,0.00,23.24,28.02,31.08,4.91,27.17,1030.74,2025.04,1940.94,2221.68,2408.51,350.13,352.18,18.57,0000 0000 0000 0000 000000
2015-01-13 06:10:30,0.33,4.70,0.00,23.23,28.02,31.07,4.87,27.18,1030.77,2025.01,1939.00,2220.01,2406.65,350.23,352.24,18.60,0000 0000 0000 0000 000000
2015-01-13 06:15:31,0.33,4.71,0.00,23.22,28.02,31.07,4.83,27.27,1030.78,2025.01,1936.96,2218.35,2404.89,350.24,352.67,18.63,0000 0000 0000 0000 000000
2015-01-13 06:20:32,0.35,4.72,0.00,23.18,28.00,31.06,4.96,27.31,1030.78,2025.00,1934.95,2216.70,2403.13,350.42,352.77,18.66,0000 0000 0000 0000 000000
2015-01-13 06:25:33,0.33,4.73,0.00,23.16,28.00,31.06,4.87,27.25,1030.77,2025.00,1932.93,2215.05,2401.39,350.13,352.47,18.69,0000 0000 0000 0000 000000
2015-01-13 06:30:35,0.33,4.74,0.00,23.16,28.00,31.06,4.88,27.23,1030.78,2025.02,1930.98,2213.45,2399.66,350.08,352.43,18.72,0000 0000 0000 0000 000000
2015-01-13 06:35:36,0.36,4.75,0.00,23.14,28.00,31.06,4.84,27.17,1030.78,2025.01,1928.96,2211.76,2397.77,349.76,352.00,18.74,0000 0000 0000 0000 000000
2015-01-13 06:40:37,0.35,4.76,0.00,23.13,28.00,31.08,4.84,27.39,1030.73,2025.01,1926.87,2210.02,2395.92,350.09,352.46,18.77,0000 0000 0000 0000 000000
2015-01-13 06:45:38,0.31,4.77,0.00,23.11,28.00,31.07,4.88,27.18,1030.72,2025.01,1924.88,2208.43,2394.17,349.57,351.98,18.80,0000 0000 0000 0000 000000
2015-01-13 06:50:39,0.34,4.78,0.00,23.12,27.99,31.07,4.92,27.21,1030.78,2025.02,1923.02,2206.74,2392.37,350.15,352.54,18.83,0000 0000 0000 0000 000000
2015-01-13 06:55:40,0.36,4.79,0.00,23.13,27.97,31.07,4.81,27.13,1030.78,2025.03,1920.88,2205.02,2390.55,349.95,352.38,18.86,0000 0000 0000 0000 000000
2015-01-13 07:00:41,0.33,4.80,0.00,23.10,27.97,31.07,4.80,27.17,1030.78,2025.03,1918.88,2203.34,2388.78,349.30,351.73,18.89,0000 0000 0000 0000 000000
2015-01-13 07:05:43,0.35,4.81,0.00,23.09,27.97,31.10,4.77,27.23,1030.78,2025.02,1916.90,2201.69,2386.97,349.48,351.81,18.92,0000 0000 0000 0000 000000
2015-01-13 07:10:44,0.34,4.82,0.00,23.09,27.97,31.04,4.83,27.18,1030.78,2025.06,1914.92,2200.04,2385.18,349.58,352.01,18.95,0000 0000 0000 0000 000000
2015-01-13 07:15:46,0.32,4.83,0.00,23.09,27.95,31.09,4.82,27.12,1030.79,2025.05,1912.99,2198.35,2383.37,349.73,352.15,18.98,0000 0000 0000 0000 000000
2015-01-13 07:20:47,0.37,4.84,0.00,23.08,27.95,31.06,4.89,27.12,1030.79,2025.05,1910.87,2196.65,2381.59,350.03,352.60,19.01,0000 0000 0000 0000 000000
2015-01-13 07:25:48,0.37,4.85,0.00,23.05,27.95,31.06,4.91,27.30,1030.78,2025.14,1908.83,2194.98,2379.84,350.41,352.74,19.04,0000 0000 0000 0000 000000
2015-01-13 07:30:49,0.35,4.86,0.00,23.07,27.94,31.05,4.85,27.21,1030.78,2025.26,1906.73,2193.29,2377.96,350.21,352.56,19.07,0000 0000 0000 0000 000000
2015-01-13 07:35:50,0.43,4.88,0.00,23.03,27.92,31.05,4.90,27.34,1030.84,2025.55,1904.66,2191.58,2376.19,350.12,352.32,19.10,0000 0000 0000 0000 000000
2015-01-13 07:40:52,0.31,4.89,0.00,23.04,27.92,31.04,4.86,27.47,1030.93,2025.23,1902.48,2189.75,2374.19,349.62,352.13,19.13,0000 0000 0000 0000 000000
2015-01-13 07:45:53,0.38,4.90,0.00,22.99,27.92,31.05,4.89,27.28,1030.81,2025.39,1900.43,2188.04,2372.39,350.38,352.98,19.15,0000 0000 0000 0000 000000
2015-01-13 07:50:54,0.40,4.91,0.00,22.98,27.90,31.03,4.91,27.37,1030.80,2025.65,1898.38,2186.38,2370.63,350.38,352.95,19.18,0000 0000 0000 0000 000000
2015-01-13 07:55:55,0.39,4.92,0.00,22.97,27.90,31.02,4.82,27.21,1030.89,2025.83,1896.40,2184.72,2368.82,349.78,352.32,19.21,0000 0000 0000 0000 000000
2015-01-13 08:00:56,0.34,4.93,0.00,22.99,27.89,31.01,4.89,27.20,1031.03,2025.86,1894.37,2183.04,2367.12,349.81,352.49,19.24,0000 0000 0000 0000 000000
2015-01-13 08:05:57,0.32,4.94,0.00,22.95,27.87,31.00,4.92,27.32,1030.94,2025.79,1892.39,2181.41,2365.45,350.57,353.17,19.27,0000 0000 0000 0000 000000
2015-01-13 08:10:59,0.38,4.95,0.00,22.94,27.87,30.99,4.84,27.24,1031.25,2025.92,1890.49,2179.79,2363.71,350.08,352.83,19.30,0000 0000 0000 0000 000000
2015-01-13 08:16:00,0.32,4.96,0.00,22.95,27.86,30.98,4.84,27.21,1031.26,2025.96,1888.62,2178.28,2362.02,350.07,352.74,19.33,0000 0000 0000 0000 000000
2015-01-13 08:21:01,0.36,4.97,0.00,22.97,27.85,30.98,4.86,27.32,1031.26,2025.97,1886.61,2176.63,2360.31,350.41,353.26,19.36,0000 0000 0000 0000 000000
2015-01-13 08:26:03,0.34,4.98,0.00,22.96,27.85,30.96,4.91,27.33,1031.26,2025.98,1884.57,2175.00,2358.52,350.04,352.90,19.39,0000 0000 0000 0000 000000
2015-01-13 08:31:04,0.35,4.99,0.00,22.92,27.84,30.94,4.89,27.27,1031.26,2025.96,1882.56,2173.47,2356.73,350.01,352.81,19.42,0000 0000 0000 0000 000000
2015-01-13 08:36:06,0.33,5.00,0.00,22.91,27.82,30.94,4.86,27.26,1031.25,2025.96,1880.67,2171.82,2355.01,349.98,352.85,19.45,0000 0000 0000 0000 000000
2015-01-13 08:41:07,0.35,5.01,0.00,22.90,27.82,30.93,4.87,27.43,1031.17,2025.96,1878.63,2170.10,2353.22,350.09,352.97,19.48,0000 0000 0000 0000 000000
2015-01-13 08:46:08,0.34,5.02,0.00,22.91,27.81,30.94,4.89,27.35,1031.10,2025.97,1876.65,2168.56,2351.56,349.95,352.63,19.51,0000 0000 0000 0000 000000
2015-01-13 08:51:10,0.35,5.03,0.00,22.93,27.80,30.92,4.85,27.24,1031.01,2025.98,1874.71,2166.94,2349.78,349.94,352.44,19.54,0000 0000 0000 0000 000000
2015-01-13 08:56:11,0.34,5.04,0.00,22.89,27.80,30.91,4.90,27.21,1031.23,2025.99,1872.80,2165.30,2348.04,349.95,352.55,19.56,0000 0000 0000 0000 000000
2015-01-13 09:01:12,0.35,5.05,0.00,22.85,27.79,30.92,4.81,27.15,1030.91,2025.99,1870.84,2163.72,2346.39,349.80,352.35,19.59,0000 0000 0000 0000 000000
2015-01-13 09:06:14,0.32,5.06,0.00,22.84,27.77,30.89,4.87,27.18,1030.81,2025.99,1868.96,2162.21,2344.69,349.97,352.70,19.62,0000 0000 0000 0000 000000
2015-01-13 09:11:15,0.34,5.07,0.00,22.86,27.77,30.88,4.88,27.26,1030.78,2025.99,1867.10,2160.65,2343.02,349.90,352.69,19.65,0000 0000 0000 0000 000000
2015-01-13 09:16:17,0.33,5.08,0.00,22.87,27.76,30.87,4.91,27.18,1030.80,2025.99,1865.20,2159.08,2341.36,350.13,352.66,19.68,0000 0000 0000 0000 000000
2015-01-13 09:21:18,0.35,5.09,0.00,22.85,27.75,30.86,4.85,27.18,1030.80,2025.99,1863.23,2157.51,2339.69,349.65,352.53,19.71,0000 0000 0000 0000 000000
2015-01-13 09:26:19,0.33,5.10,0.00,22.84,27.75,30.87,4.86,27.32,1030.79,2026.00,1861.28,2155.89,2338.05,349.98,352.49,19.74,0000 0000 0000 0000 000000
2015-01-13 09:31:20,0.32,5.11,0.00,22.83,27.72,30.85,4.88,27.27,1030.78,2026.00,1859.45,2154.44,2336.48,350.31,352.73,19.77,0000 0000 0000 0000 000000
2015-01-13 09:36:22,0.34,5.12,0.00,22.81,27.72,30.85,4.85,27.22,1030.78,2026.01,1857.61,2152.87,2334.77,350.34,353.01,19.80,0000 0000 0000 0000 000000
2015-01-13 09:41:23,0.33,5.13,0.00,22.82,27.71,30.84,4.88,27.57,1030.78,2026.01,1855.66,2151.29,2333.04,349.67,352.47,19.83,0000 0000 0000 0000 000000
2015-01-13 09:46:25,0.31,5.14,0.00,22.83,27.70,30.84,4.82,27.24,1030.78,2026.00,1854.06,2149.75,2331.37,349.63,352.37,19.86,0000 0000 0000 0000 000000
2015-01-13 09:51:26,0.32,5.15,0.00,22.84,27.70,30.82,4.91,27.14,1030.80,2026.01,1852.28,2148.28,2329.70,349.87,352.34,19.89,0000 0000 0000 0000 000000
2015-01-13 09:56:27,0.34,5.16,0.00,22.84,27.70,30.80,4.92,27.31,1030.82,2026.02,1850.40,2146.73,2328.09,349.82,352.34,19.92,0000 0000 0000 0000 000000
2015-01-13 10:01:28,0.31,5.17,0.00,22.82,27.68,30.79,4.91,27.28,1030.84,2026.02,1848.56,2145.21,2326.46,350.16,352.89,19.95,0000 0000 0000 0000 000000
2015-01-13 10:06:30,0.35,5.18,0.00,22.80,27.67,30.79,4.92,27.23,1031.06,2026.09,1846.80,2143.75,2324.86,350.15,353.12,19.98,0000 0000 0000 0000 000000
2015-01-13 10:11:31,0.31,5.19,0.00,22.79,27.67,30.79,4.83,27.38,1031.15,2026.07,1844.92,2142.15,2323.20,349.84,352.73,20.00,0000 0000 0000 0000 000000
2015-01-13 10:16:32,0.36,5.20,0.00,22.80,27.66,30.77,4.84,27.36,1031.20,2026.08,1843.00,2140.61,2321.58,349.72,352.79,20.03,0000 0000 0000 0000 000000
2015-01-13 10:21:34,0.29,5.21,0.00,22.79,27.65,30.79,4.90,27.36,1031.18,2026.10,1841.20,2139.16,2320.01,350.51,353.43,20.06,0000 0000 0000 0000 000000
2015-01-13 10:26:35,0.39,5.22,0.00,22.78,27.65,30.77,4.85,27.29,1031.20,2026.32,1839.53,2137.72,2318.53,350.10,353.08,20.09,0000 0000 0000 0000 000000
2015-01-13 10:31:36,0.31,5.23,0.00,22.75,27.65,30.75,4.87,27.31,1031.08,2026.44,1837.79,2136.36,2316.98,349.58,352.52,20.12,0000 0000 0000 0000 000000
2015-01-13 10:36:37,0.28,5.24,0.00,22.75,27.63,30.77,4.93,27.39,1031.24,2026.44,1836.06,2134.89,2315.51,349.89,353.03,20.15,0000 0000 0000 0000 000000
2015-01-13 10:41:38,0.33,5.25,0.00,22.74,27.62,30.75,4.86,27.44,1031.25,2026.41,1834.31,2133.44,2313.89,350.37,353.28,20.18,0000 0000 0000 0000 000000
2015-01-13 10:46:40,0.37,5.26,0.00,22.73,27.62,30.75,4.83,27.34,1031.26,2026.79,1832.64,2132.10,2312.52,350.04,352.92,20.21,0000 0000 0000 0000 000000
2015-01-13 10:51:41,0.32,5.27,0.00,22.72,27.61,30.73,4.82,27.41,1031.11,2026.75,1830.89,2130.62,2310.93,349.88,352.75,20.24,0000 0000 0000 0000 000000
2015-01-13 10:56:43,0.31,5.28,0.00,22.73,27.60,30.73,4.90,27.41,1031.18,2026.83,1829.18,2129.24,2309.44,350.17,353.24,20.27,0000 0000 0000 0000 000000
2015-01-13 11:01:44,0.30,5.29,0.00,22.73,27.60,30.73,4.82,27.40,1031.26,2026.91,1827.54,2127.93,2307.99,349.58,352.65,20.30,0000 0000 0000 0000 000000
2015-01-13 11:06:45,0.33,5.30,0.00,22.74,27.60,30.72,4.90,27.28,1031.26,2026.94,1825.87,2126.59,2306.53,350.31,353.37,20.33,0000 0000 0000 0000 000000
2015-01-13 11:11:46,0.27,5.31,0.00,22.76,27.58,30.71,4.92,27.23,1031.26,2026.97,1824.29,2125.22,2305.03,350.14,353.06,20.36,0000 0000 0000 0000 000000
2015-01-13 11:16:48,0.34,5.32,0.00,22.76,27.57,30.70,4.92,27.31,1031.26,2026.98,1822.62,2123.79,2303.54,350.44,353.54,20.39,0000 0000 0000 0000 000000
2015-01-13 11:21:49,0.29,5.32,0.00,22.73,27.57,30.70,4.91,27.31,1031.26,2026.97,1820.92,2122.42,2302.15,349.70,352.63,20.41,0000 0000 0000 0000 000000
2015-01-13 11:26:51,0.28,5.33,0.00,22.69,27.57,30.69,4.80,27.33,1031.26,2026.98,1819.18,2121.09,2300.75,349.53,352.54,20.44,0000 0000 0000 0000 000000
2015-01-13 11:31:52,0.32,5.34,0.00,22.72,27.56,30.67,4.86,27.27,1031.26,2026.98,1817.61,2119.74,2299.39,350.03,352.93,20.47,0000 0000 0000 0000 000000
2015-01-13 11:36:53,0.26,5.35,0.00,22.69,27.55,30.68,4.80,27.28,1031.26,2026.99,1816.04,2118.51,2297.99,349.55,352.61,20.50,0000 0000 0000 0000 000000
2015-01-13 11:41:55,0.30,5.36,0.00,22.70,27.55,30.66,4.79,27.34,1031.26,2026.98,1814.41,2117.16,2296.59,349.94,352.91,20.53,0000 0000 0000 0000 000000
2015-01-13 11:46:56,0.26,5.37,0.00,22.75,27.55,30.67,4.87,27.43,1031.27,2026.99,1812.90,2115.89,2295.27,349.37,352.49,20.56,0000 0000 0000 0000 000000
2015-01-13 11:51:57,0.29,5.38,0.00,22.72,27.54,30.65,4.95,27.52,1031.27,2026.99,1811.51,2114.68,2293.82,349.95,352.95,20.59,0000 0000 0000 0000 000000
2015-01-13 11:56:58,0.27,5.38,0.00,22.74,27.53,30.65,4.83,27.38,1031.27,2026.99,1810.01,2113.46,2292.55,349.72,352.90,20.62,0000 0000 0000 0000 000000
2015-01-13 12:01:59,0.27,5.39,0.00,22.75,27.52,30.66,4.86,27.31,1031.26,2026.99,1808.44,2112.17,2291.19,349.92,353.09,20.65,0000 0000 0000 0000 000000
2015-01-13 12:07:00,0.28,5.40,0.00,22.74,27.52,30.63,4.80,27.29,1031.25,2026.99,1806.81,2110.97,2289.77,349.33,352.37,20.68,0000 0000 0000 0000 000000
2015-01-13 12:12:02,0.26,5.41,0.00,22.72,27.52,30.63,4.81,27.23,1031.19,2026.99,1805.39,2109.84,2288.50,349.72,352.62,20.71,0000 0000 0000 0000 000000
2015-01-13 12:17:03,0.26,5.42,0.00,22.70,27.52,30.61,4.92,27.27,1031.24,2026.99,1803.91,2108.67,2287.27,349.89,352.95,20.74,0000 0000 0000 0000 000000
2015-01-13 12:22:04,0.27,5.42,0.00,22.71,27.52,30.60,4.91,27.35,1031.23,2026.99,1802.52,2107.51,2285.93,350.60,353.64,20.77,0000 0000 0000 0000 000000
2015-01-13 12:27:05,0.27,5.43,0.00,22.73,27.51,30.58,4.85,27.40,1031.20,2026.99,1800.96,2106.32,2284.67,349.69,352.72,20.80,0000 0000 0000 0000 000000
2015-01-13 12:32:06,0.26,5.44,0.00,22.72,27.50,30.58,4.87,27.34,1031.09,2026.99,1799.53,2105.13,2283.46,349.78,352.58,20.82,0000 0000 0000 0000 000000
2015-01-13 12:37:08,0.26,5.45,0.00,22.72,27.50,30.61,4.85,27.26,1031.09,2026.99,1798.10,2103.94,2282.18,350.06,352.70,20.85,0000 0000 0000 0000 000000
2015-01-13 12:42:09,0.32,5.46,0.00,22.73,27.50,30.58,4.87,27.56,1031.23,2026.99,1796.51,2102.63,2280.75,350.00,353.08,20.88,0000 0000 0000 0000 000000
2015-01-13 12:47:10,0.24,5.46,0.00,22.72,27.50,30.59,4.82,27.19,1031.26,2026.99,1795.10,2101.51,2279.57,349.62,352.55,20.91,0000 0000 0000 0000 000000
2015-01-13 12:52:12,0.25,5.47,0.00,22.74,27.50,30.57,4.86,27.29,1031.24,2026.99,1793.72,2100.37,2278.30,349.82,352.88,20.94,0000 0000 0000 0000 000000
2015-01-13 12:57:13,0.24,5.48,0.00,22.73,27.50,30.53,4.87,27.34,1031.23,2026.99,1792.36,2099.22,2277.05,350.85,353.70,20.97,0000 0000 0000 0000 000000
2015-01-13 13:02:14,0.28,5.49,0.00,22.69,27.49,30.59,4.86,27.23,1031.23,2026.99,1790.90,2097.97,2275.73,349.72,352.78,21.00,0000 0000 0000 0000 000000